This is the latest recevied weather packets stored in our database for station/object IW4CYE-7. If no packets are shown the sender has not sent any weather packets the latest 10 day(s).
| Time | Temp. | Humidity | Pressure | Rain* | Wind** | Luminosity | Snow |
|---|---|---|---|---|---|---|---|
| 1787750842 | 32.22° C | 59% | 1005.1 hPa | 0 mm | - | - | - |
| 1787750242 | 32.22° C | 58% | 1005.1 hPa | 0 mm | - | - | - |
| 1787749642 | 32.22° C | 53% | 1005.1 hPa | 0 mm | - | - | - |
| 1787749042 | 32.22° C | 55% | 1005.4 hPa | 0 mm | - | - | - |
| 1787748442 | 31.67° C | 55% | 1005.1 hPa | 0 mm | - | - | - |
| 1787747842 | 31.11° C | 58% | 1005.8 hPa | 0 mm | - | - | - |
| 1787747242 | 31.67° C | 59% | 1005.8 hPa | 0 mm | - | - | - |
| 1787746642 | 31.67° C | 59% | 1006.1 hPa | 0 mm | - | - | - |
| 1787746042 | 31.11° C | 60% | 1005.8 hPa | 0 mm | - | - | - |
| 1787745442 | 30° C | 63% | 1005.8 hPa | 0 mm | - | - | - |
| 1787744842 | 31.11° C | 61% | 1005.8 hPa | 0 mm | - | - | - |
| 1787744242 | 31.11° C | 63% | 1006.1 hPa | 0 mm | - | - | - |
| 1787743642 | 31.11° C | 64% | 1005.8 hPa | 0 mm | - | - | - |
| 1787743042 | 30.56° C | 61% | 1006.1 hPa | 0 mm | - | - | - |
| 1787742442 | 30.56° C | 63% | 1006.1 hPa | 0 mm | - | - | - |
| 1787741842 | 30° C | 65% | 1006.1 hPa | 0 mm | - | - | - |
| 1787741242 | 30° C | 65% | 1006.4 hPa | 0 mm | - | - | - |
| 1787740642 | 30° C | 65% | 1006.1 hPa | 0 mm | - | - | - |
| 1787740042 | 29.44° C | 68% | 1006.1 hPa | 0 mm | - | - | - |
| 1787739442 | 29.44° C | 68% | 1006.1 hPa | 0 mm | - | - | - |
| 1787738842 | 29.44° C | 68% | 1006.1 hPa | 0 mm | - | - | - |
| 1787738242 | 29.44° C | 69% | 1006.4 hPa | 0 mm | - | - | - |
| 1787737642 | 28.89° C | 67% | 1006.4 hPa | 0 mm | - | - | - |
| 1787737042 | 28.89° C | 68% | 1006.4 hPa | 0 mm | - | - | - |
| 1787735842 | 27.78° C | 75% | 1006.4 hPa | 0 mm | - | - | - |
* Rain latest hour (hover to see other rain measurements)
** Current wind speed in m/s (hover to see current wind gust speed)